Regional Weather Roundup
Issued by NWS Cleveland, OH

Home | Current Version | Previous Version | Graphics & Text | Print | Product List | Glossary On
Versions: 1 2 3 4 5 6 7 8 9 10 11 12 13 14 15 16 17 18 19 20 21 22 23 24 25 26 27 28 29 30 31 32 33 34 35 36 37 38 39 40 41 42 43 44 45 46 47 48 49 50
000
ASUS41 KCLE 221500
RWRCLE
OHIO REGIONAL WEATHER ROUNDUP
NATIONAL WEATHER SERVICE WILMINGTON, OH
1100 AM EDT MON MAY 22 2017

NOTE: "FAIR" INDICATES FEW OR NO CLOUDS BELOW 12,000 FEET WITH NO
SIGNIFICANT WEATHER AND/OR OBSTRUCTIONS TO VISIBILITY.

OHZ001>008-015>018-024>027-034-035-043-044-221600-
   NORTHWEST OHIO

CITY           SKY/WX    TMP DP  RH WIND       PRES   REMARKS
DEFIANCE       FAIR      58  41  53 SW10G18   30.06S
FINDLAY        FAIR      59  42  53 SW15      30.09R
TOLEDO EXPRESS FAIR      59  43  55 W18       30.04S
TOLEDO EXEC    PTSUNNY   58  44  60 SW15G22   30.06S
LIMA           FAIR      57  45  64 W18       30.10R
$$

OHZ009>014-019>023-028>033-038-089-221600-
   NORTHEAST OHIO

CITY           SKY/WX    TMP DP  RH WIND       PRES   REMARKS
CLE-HOPKINS    PTSUNNY   59  41  51 W16G22    30.08S
CLE-LAKEFRONT  FAIR      58  42  55 W14       30.05S
CUY CO. ARPT   NOT AVBL
LORAIN-ELYRIA  CLOUDY    55  39  54 W12G22    30.07S
ASHTABULA      PTSUNNY   56  45  66 W17       30.05R
AKRON-CANTON   PTSUNNY   56  41  57 W15G22    30.07S
WOOSTER        NOT AVBL
MANSFIELD      PTSUNNY   56  42  59 SW15      30.10R
YOUNGSTOWN     PTSUNNY   57  46  66 W12       30.05R
$$

OHZ042-051>053-060>062-070>072-077>081-221600-
  SOUTHWEST OHIO

CITY           SKY/WX    TMP DP  RH WIND       PRES   REMARKS
CINC-COVINGTON PTSUNNY   61  43  51 NW9       30.15F
CINC-LUNKEN    FAIR      62  44  51 NW8G18    30.16F
HAMILTON       FAIR      62  44  51 W12G18    30.17F
DAYTON         NOT AVBL
WRIGHT-PAT AFB FAIR      59  41  51 W15       30.13S
DAYTON GENERAL FAIR      59  41  51 W12G18    30.14F
WILMINGTON     FAIR      59  45  59 W12       30.14F
$$

OHZ036-037-039>041-045>050-054>059-063>069-073>076-082>088-221600-
  CENTRAL AND SOUTHEAST OHIO

CITY           SKY/WX    TMP DP  RH WIND       PRES   REMARKS
COLUMBUS       PTSUNNY   60  44  55 W12       30.12S
OSU AIRPORT    FAIR      58  44  60 W12G21    30.13R
BOLTON FIELD   SUNNY     57  45  62 W7G18     30.14R
RICKENBACK AFB NOT AVBL
NEWARK         FAIR      59  43  55 W8G18     30.11S
MARION         PTSUNNY   57  42  57 W10G21    30.11S
LANCASTER      FAIR      60  43  53 W8        30.14R
ZANESVILLE     FAIR      60  42  51 VRB7      30.12R
NEW PHILLY     FAIR      58  44  60 W9        30.10R
$$



USA.gov is the U.S. government's official web portal to all federal, state and local government web resources and services.